| time (UTC) | temp F | wind direction | speed MPH | gust MPH | rain 1hr in | rain 24hr in | rain mn in | humidity % | barometer mb |
| 20260505183003 | 79 | 165 | 10.0 | 23.0 | 0.00 | 0.00 | 0.00 | 40 | 1011.6 |
| 20260505181504 | 79 | 130 | 8.0 | 19.0 | 0.00 | 0.00 | 0.00 | 35 | 1011.6 |
| 20260505180011 | 79 | 144 | 6.0 | 23.0 | 0.00 | 0.00 | 0.00 | 36 | 1011.8 |
| 20260505174509 | 78 | 130 | 8.0 | 23.0 | 0.00 | 0.00 | 0.00 | 36 | 1011.7 |
| 20260505173010 | 77 | 181 | 11.0 | 23.0 | 0.00 | 0.00 | 0.00 | 39 | 1011.8 |
| 20260505171512 | 77 | 155 | 14.0 | 22.0 | 0.00 | 0.00 | 0.00 | 40 | 1012.0 |
| 20260505170009 | 77 | 134 | 14.0 | 22.0 | 0.00 | 0.00 | 0.00 | 39 | 1012.2 |
| 20260505164504 | 76 | 139 | 11.0 | 21.0 | 0.00 | 0.00 | 0.00 | 42 | 1012.4 |
| 20260505163016 | 76 | 193 | 9.0 | 14.0 | 0.00 | 0.00 | 0.00 | 42 | 1012.6 |
| 20260505161518 | 75 | 184 | 6.0 | 18.0 | 0.00 | 0.00 | 0.00 | 47 | 1012.8 |
| 20260505153007 | 73 | 155 | 6.0 | 10.0 | 0.00 | 0.00 | 0.00 | 50 | 1013.1 |
| 20260505151507 | 72 | 178 | 3.0 | 12.0 | 0.00 | 0.00 | 0.00 | 50 | 1013.2 |
| 20260505124524 | 63 | 125 | 6.0 | 12.0 | 0.00 | 0.00 | 0.00 | 60 | 1013.4 |
| 20260505123023 | 63 | 144 | 5.0 | 14.0 | 0.00 | 0.00 | 0.00 | 58 | 1013.5 |
| 20260505121510 | 62 | 132 | 5.0 | 11.0 | 0.00 | 0.00 | 0.00 | 62 | 1013.4 |
| 20260505120027 | 61 | 153 | 8.0 | 12.0 | 0.00 | 0.00 | 0.00 | 61 | 1013.3 |
| 20260505114508 | 61 | 138 | 8.0 | 12.0 | 0.00 | 0.00 | 0.00 | 61 | 1013.2 |
| 20260505113004 | 61 | 148 | 5.0 | 11.0 | 0.00 | 0.00 | 0.00 | 64 | 1013.1 |
| 20260505111522 | 60 | 162 | 4.0 | 9.0 | 0.00 | 0.00 | 0.00 | 64 | 1013.0 |
| 20260505101512 | 60 | 152 | 3.0 | 8.0 | 0.00 | 0.00 | 0.00 | 64 | 1012.6 |
| 20260505100006 | 60 | 145 | 5.0 | 9.0 | 0.00 | 0.00 | 0.00 | 63 | 1012.4 |
| 20260505094507 | 60 | 142 | 4.0 | 8.0 | 0.00 | 0.00 | 0.00 | 64 | 1012.4 |
| 20260505093003 | 60 | 140 | 5.0 | 9.0 | 0.00 | 0.00 | 0.00 | 62 | 1012.5 |
| 20260505091522 | 61 | 148 | 3.0 | 7.0 | 0.00 | 0.00 | 0.00 | 62 | 1012.5 |
| 20260505090012 | 61 | 132 | 3.0 | 7.0 | 0.00 | 0.00 | 0.00 | 60 | 1012.4 |
| 20260505084512 | 61 | 121 | 2.0 | 5.0 | 0.00 | 0.00 | 0.00 | 61 | 1012.4 |
| 20260505083018 | 61 | 143 | 3.0 | 9.0 | 0.00 | 0.00 | 0.00 | 60 | 1012.3 |
| 20260505081508 | 61 | 132 | 3.0 | 5.0 | 0.00 | 0.00 | 0.00 | 61 | 1012.2 |
| 20260505080005 | 61 | 126 | 2.0 | 5.0 | 0.00 | 0.00 | 0.00 | 59 | 1012.2 |
| 20260505074508 | 62 | 129 | 2.0 | 3.0 | 0.00 | 0.00 | 0.00 | 59 | 1012.1 |
| 20260505073012 | 62 | 134 | 1.0 | 3.0 | 0.00 | 0.00 | 0.00 | 57 | 1012.1 |
| 20260505071530 | 63 | 132 | 2.0 | 7.0 | 0.00 | 0.00 | 0.00 | 57 | 1012.0 |
| 20260505070021 | 64 | 158 | 4.0 | 10.0 | 0.00 | 0.00 | 0.00 | 56 | 1011.8 |
| 20260505064509 | 64 | 144 | 3.0 | 8.0 | 0.00 | 0.00 | 0.00 | 56 | 1011.7 |
| 20260505063007 | 64 | 131 | 2.0 | 7.0 | 0.00 | 0.00 | 0.00 | 55 | 1011.7 |
| 20260505061521 | 65 | 126 | 2.0 | 5.0 | 0.00 | 0.00 | 0.00 | 56 | 1011.5 |
| 20260505060035 | 65 | 131 | 2.0 | 6.0 | 0.00 | 0.00 | 0.00 | 58 | 1011.6 |
| 20260505054527 | 62 | 194 | 4.0 | 9.0 | 0.00 | 0.00 | 0.00 | 60 | 1011.5 |
| 20260505053007 | 59 | 153 | 0.0 | 0.0 | 0.00 | 0.00 | 0.00 | 69 | 1011.5 |
| 20260505051519 | 60 | 153 | 0.0 | 0.0 | 0.00 | 0.00 | 0.00 | 69 | 1011.5 |
| 20260505041511 | 62 | 154 | 0.0 | 0.0 | 0.00 | 0.00 | 0.00 | 70 | 1011.4 |
| 20260505040018 | 62 | 154 | 0.0 | 0.0 | 0.00 | 0.00 | 0.00 | 69 | 1011.3 |
| 20260505034503 | 63 | 154 | 0.0 | 0.0 | 0.00 | 0.00 | 0.00 | 61 | 1011.5 |
| 20260505033004 | 64 | 154 | 1.0 | 2.0 | 0.00 | 0.00 | 0.00 | 66 | 1011.6 |
| 20260505031503 | 65 | 138 | 0.0 | 3.0 | 0.00 | 0.00 | 0.00 | 57 | 1011.6 |
| 20260505030006 | 66 | 144 | 2.0 | 6.0 | 0.00 | 0.00 | 0.00 | 56 | 1011.7 |
| 20260505024506 | 67 | 171 | 3.0 | 6.0 | 0.00 | 0.00 | 0.00 | 55 | 1011.8 |
| 20260505023013 | 67 | 152 | 3.0 | 6.0 | 0.00 | 0.00 | 0.00 | 56 | 1011.7 |
| 20260505021503 | 67 | 138 | 1.0 | 3.0 | 0.00 | 0.00 | 0.00 | 55 | 1011.6 |
| 20260505020008 | 67 | 149 | 1.0 | 3.0 | 0.00 | 0.00 | 0.00 | 54 | 1011.6 |
| 20260505014512 | 68 | 133 | 0.0 | 3.0 | 0.00 | 0.00 | 0.00 | 53 | 1011.4 |
| 20260505013004 | 68 | 130 | 1.0 | 6.0 | 0.00 | 0.00 | 0.00 | 52 | 1011.3 |
| 20260505011505 | 69 | 173 | 3.0 | 6.0 | 0.00 | 0.00 | 0.00 | 53 | 1011.3 |
| 20260505010005 | 70 | 142 | 1.0 | 6.0 | 0.00 | 0.00 | 0.00 | 48 | 1011.1 |
| 20260505004503 | 71 | 141 | 3.0 | 10.0 | 0.00 | 0.00 | 0.00 | 47 | 1010.9 |
| 20260505003008 | 72 | 166 | 9.0 | 18.0 | 0.00 | 0.00 | 0.00 | 44 | 1010.9 |
| 20260505001506 | 72 | 138 | 3.0 | 7.0 | 0.00 | 0.00 | 0.00 | 42 | 1011.0 |
| 20260505000019 | 72 | 135 | 1.0 | 5.0 | 0.00 | 0.00 | 0.00 | 42 | 1010.8 |
| 20260504234510 | 73 | 120 | 5.0 | 7.0 | 0.00 | 0.00 | 0.00 | 43 | 1010.6 |
| 20260504233006 | 73 | 131 | 5.0 | 11.0 | 0.00 | 0.00 | 0.00 | 40 | 1010.4 |
| 20260504231504 | 74 | 164 | 3.0 | 8.0 | 0.00 | 0.00 | 0.00 | 41 | 1010.5 |
| 20260504230006 | 74 | 127 | 2.0 | 10.0 | 0.00 | 0.00 | 0.00 | 39 | 1010.4 |
| 20260504224513 | 74 | 169 | 8.0 | 15.0 | 0.00 | 0.00 | 0.00 | 39 | 1010.4 |
| 20260504223014 | 75 | 202 | 10.0 | 19.0 | 0.00 | 0.00 | 0.00 | 38 | 1010.3 |
| 20260504221512 | 75 | 184 | 9.0 | 16.0 | 0.00 | 0.00 | 0.00 | 39 | 1010.4 |
| 20260504220009 | 75 | 148 | 9.0 | 19.0 | 0.00 | 0.00 | 0.00 | 39 | 1010.6 |
| 20260504214518 | 74 | 151 | 9.0 | 19.0 | 0.00 | 0.00 | 0.00 | 39 | 1010.6 |
| 20260504213017 | 74 | 138 | 11.0 | 21.0 | 0.00 | 0.00 | 0.00 | 38 | 1010.6 |
| 20260504211524 | 74 | 150 | 7.0 | 23.0 | 0.00 | 0.00 | 0.00 | 39 | 1010.4 |
| 20260504210014 | 74 | 137 | 10.0 | 22.0 | 0.00 | 0.00 | 0.00 | 40 | 1010.5 |
| 20260504204517 | 73 | 136 | 9.0 | 19.0 | 0.00 | 0.00 | 0.00 | 37 | 1010.6 |
| 20260504203012 | 73 | 163 | 9.0 | 19.0 | 0.00 | 0.00 | 0.00 | 36 | 1010.7 |
| 20260504201510 | 74 | 165 | 11.0 | 22.0 | 0.00 | 0.00 | 0.00 | 38 | 1010.8 |
| 20260504200017 | 73 | 184 | 7.0 | 17.0 | 0.00 | 0.00 | 0.00 | 38 | 1010.9 |
| 20260504194516 | 73 | 167 | 5.0 | 19.0 | 0.00 | 0.00 | 0.00 | 38 | 1011.0 |
| 20260504193022 | 72 | 153 | 10.0 | 16.0 | 0.00 | 0.00 | 0.00 | 38 | 1011.3 |
| 20260504191520 | 73 | 132 | 5.0 | 17.0 | 0.00 | 0.00 | 0.00 | 37 | 1011.3 |
| 20260504190020 | 72 | 155 | 10.0 | 19.0 | 0.00 | 0.00 | 0.00 | 36 | 1011.5 |
| 20260504184504 | 72 | 190 | 6.0 | 20.0 | 0.00 | 0.00 | 0.00 | 38 | 1011.6 |